Location: ???????
(37.9763°N, 23.8889°E)
Time: 16:45:12
(UTC+00:00)

BREEZE-M DEB (TANK) - Visible Passes

Search period start: 08 September 2024 00:00
Search period end: 18 September 2024 00:00
Orbit: 295 x 18086 km, 52.9° (Epoch: 07 September)

Date Brightness Start Highest point End Pass type
(mag) Time Alt. Az. Time Alt. Az. Time Alt. Az.
08 Sep 9.6 03:06:10 10° SE 04:05:45 21° ESE 04:29:21 10° ENE visible
10 Sep 9.1 03:08:33 10° SSE 04:28:22 29° ESE 04:53:06 10° ENE visible
12 Sep 8.7 03:15:01 10° SSE 04:50:51 36° ESE 05:15:08 10° ENE visible
14 Sep 8.4 03:24:50 10° SSE 05:13:04 44° ESE 05:36:04 10° ENE visible
15 Sep 10.2 02:12:19 10° ESE 02:25:48 11° ESE 02:36:15 10° E visible
16 Sep 8.1 03:37:28 10° S 05:34:53 52° SE 05:56:11 10° ENE visible
17 Sep 10.0 01:58:38 10° SE 02:46:02 17° ESE 03:08:51 10° E visible
